Tracking 21516 objects as of 1-Oct-2020
HD Live streaming from Space Station
objects crossing your sky now

FREGAT R/B

Track FREGAT R/B now!


NORAD ID: 45609
Int'l Code: 2020-031B
Perigee: 1,811.5 km
Apogee: 38,418.5 km
Inclination: 63.8 °
Period: 715.0 minutes
Semi major axis: 26485 km
RCS: Unknown
Launch date: May 22, 2020
Source: Commonwealth of Independent States (former USSR) (CIS)
Launch site: PLESETSK MISSILE AND SPACE COMPLEX (PKMTR)

Note: This is a ROCKET BODY
aabbcc
Your satellite tracking list
Your tracking list is empty




NASA's NSSDC Master Catalog

Two Line Element Set (TLE):
1 45609U 20031B   20273.93543773 -.00001114  00000-0  00000+0 0  9992
2 45609  63.8288 287.8578 6910640 269.5320  17.7962  2.01408990  2624
Source of the keplerian elements: AFSPC